Flag for Spain Weather past 2 weeks in Bilbao, Spain

Now
63 °F

Clear.


Feels Like: 63 °F
Forecast: 59 / 75 °F
Wind: No wind

Location: Bilbao / Sondica

Current Time: Sep 30, 2014 at 10:50:54 PM

Latest Report: Sep 30, 2014 at 10:00 PM


Visibility: 10 mi

Pressure: 30.33 "Hg

Humidity: 94%

Dew point: 61 °F

Location of BilbaoLocation

Historic Weather in Bilbao — Graph

°F

Bilbao temperature yesterday

Maximum temperature yesterday: 75 °F (at 2:00 PM)
Minimum temperature yesterday: 61 °F (at 6:00 AM)
Average temperature yesterday: 69 °F

Past Weeks' High & Low Weather Summary

 TemperatureHumidityPressure
High93 °F (Sep 20, 2:30 PM)100% (Sep 20, 11:30 PM)30.33 "Hg (Sep 20, 11:30 PM)
Low52 °F (Sep 26, 7:49 AM)22% (Sep 18, 4:30 PM)29.56 "Hg (Sep 16, 6:30 PM)
Average70 °F70%30.01 "Hg
* Reported Sep 15 9:00 PM — Sep 30 9:30 PM, Bilbao, Weather by CustomWeather, © 2014

Note: Actual official high and low records may vary slightly from our data, if they occured in-between our weather recording intervals... More about our weather records

Advertising

Bilbao weather history for previous 24 hours

 ConditionsComfort  
Time TempWeatherWind HumidityBarometerVisibility
9:30 PM
Sep 30
64 °FPassing clouds.No wind88%30.30 "HgN/A
9:00 PM66 °FPassing clouds.No wind83%30.30 "HgN/A
8:30 PM68 °FScattered clouds.1 mph78%30.30 "HgN/A
8:00 PM70 °FScattered clouds.No wind73%30.30 "HgN/A
7:30 PM72 °FScattered clouds.2 mph69%30.30 "HgN/A
7:00 PM72 °FScattered clouds.3 mph69%30.30 "HgN/A
6:30 PM73 °FScattered clouds.2 mph65%30.30 "HgN/A
6:00 PM73 °FScattered clouds.2 mph65%30.30 "HgN/A
5:30 PM73 °FScattered clouds.2 mph65%30.30 "HgN/A
5:00 PM73 °FScattered clouds.2 mph69%30.30 "HgN/A
4:30 PM72 °FScattered clouds.3 mph73%30.30 "HgN/A
4:00 PM72 °FScattered clouds.8 mph73%30.30 "HgN/A
3:30 PM73 °FScattered clouds.7 mph69%30.30 "HgN/A
3:00 PM73 °FBroken clouds.2 mph69%30.30 "HgN/A
2:30 PM72 °FBroken clouds.3 mph73%30.30 "HgN/A
2:00 PM72 °FBroken clouds.3 mph73%30.33 "HgN/A
1:30 PM72 °FBroken clouds.3 mph73%30.33 "HgN/A
1:00 PM70 °FScattered clouds.2 mph83%30.33 "HgN/A
12:30 PM68 °FScattered clouds.3 mph83%30.33 "Hg5 mi
12:00 PM72 °FScattered clouds.2 mph73%30.33 "Hg5 mi
11:30 AM70 °FScattered clouds.1 mph78%30.33 "Hg5 mi
11:00 AM68 °FScattered clouds.No wind88%30.30 "Hg4 mi
10:30 AM66 °FScattered clouds.No wind94%30.30 "Hg4 mi
10:00 AM66 °FScattered clouds.1 mph94%30.30 "Hg4 mi
9:30 AM64 °FScattered clouds.2 mph94%30.30 "Hg6 mi
9:00 AM64 °FPassing clouds.1 mph94%30.30 "Hg6 mi
8:30 AM63 °FPassing clouds.1 mph100%30.27 "Hg6 mi
8:00 AM64 °FPassing clouds.No wind94%30.27 "Hg6 mi
7:30 AM64 °FPassing clouds.2 mph94%30.27 "HgN/A
7:00 AM64 °FPassing clouds.No wind94%30.27 "HgN/A
6:30 AM64 °FPassing clouds.No wind94%30.27 "HgN/A
6:00 AM64 °FPassing clouds.No wind94%30.27 "HgN/A
5:30 AM64 °FPassing clouds.No wind94%30.27 "HgN/A
5:00 AM64 °FPassing clouds.No wind94%30.27 "HgN/A
12:00 AM68 °FPassing clouds.No wind88%30.27 "HgN/A
11:30 PM
Sep 29
68 °FPassing clouds.No wind88%30.27 "HgN/A
11:00 PM68 °FPassing clouds.No wind88%30.27 "HgN/A
10:30 PM68 °FPassing clouds.1 mph88%30.27 "HgN/A
10:00 PM68 °FPassing clouds.2 mph83%30.27 "HgN/A
Weather by CustomWeather, © 2014

See weather overviewHow to use our weather pages